Terminal Aerodrome Forecast
Issued by NWS

Home | Current Version | Previous Version | Text Only | Print | Product List | Glossary On
Versions: 1 2 3 4 5 6 7 8 9 10 11 12 13 14
628
FTUS45 KRIW 191720
TAFWRL
TAF
KWRL 191720Z 1918/2018 VRB05KT P6SM OVC200
     FM191900 03007KT P6SM OVC200
     FM200300 35009KT P6SM SCT100 OVC150
     FM201400 33012G20KT P6SM SCT020 OVC080=

USA.gov is the U.S. government's official web portal to all federal, state and local government web resources and services.